Location: Sceptre
(50.8619°N, 109.2670°W)
Time: 21:39:45
(UTC+00:00)

LO-87 - Visible Passes

Search period start: 27 June 2022 00:00
Search period end: 07 July 2022 00:00
Orbit: 454 x 468 km, 97.4° (Epoch: 27 June)

Date Brightness Start Highest point End Pass type
(mag) Time Alt. Az. Time Alt. Az. Time Alt. Az.
27 Jun ? 05:15:01 10° ENE 05:16:00 11° ENE 05:17:00 10° NE visible
27 Jun ? 06:47:04 34° S 06:48:26 78° WSW 06:51:55 10° NNW visible
28 Jun ? 06:15:13 23° SE 06:16:56 43° ENE 06:20:15 10° N visible
28 Jun ? 07:49:06 14° WSW 07:50:09 16° W 07:52:20 10° NW visible
29 Jun ? 05:43:21 12° ESE 05:45:34 21° ENE 05:48:13 10° NNE visible
29 Jun ? 07:17:14 26° SW 07:18:22 34° W 07:21:34 10° NNW visible
30 Jun ? 05:13:33 10° ENE 05:14:19 11° ENE 05:15:04 10° NE visible
30 Jun ? 06:45:21 35° S 06:46:42 82° WSW 06:50:12 10° NNW visible
01 Jul ? 06:13:27 23° SE 06:15:10 41° ENE 06:18:28 10° N visible
01 Jul ? 07:47:20 15° WSW 07:48:21 16° W 07:50:39 10° NW visible
02 Jul ? 05:41:33 12° ESE 05:43:45 20° ENE 05:46:20 10° NNE visible
02 Jul ? 07:15:25 28° SW 07:16:31 35° W 07:19:45 10° NNW visible
03 Jul ? 05:12:06 10° ENE 05:12:27 10° ENE 05:12:48 10° NE visible
03 Jul ? 06:43:29 36° SSE 06:44:49 87° W 06:48:19 10° NNW visible
04 Jul ? 06:11:32 23° SE 06:13:14 39° ENE 06:16:30 10° N visible
04 Jul ? 07:45:25 16° WSW 07:46:23 17° W 07:48:47 10° NW visible
05 Jul ? 05:39:35 12° ESE 05:41:46 19° ENE 05:44:17 10° NNE visible
05 Jul ? 07:13:27 29° SW 07:14:31 38° W 07:17:47 10° NNW visible
06 Jul ? 06:41:28 37° SSE 06:42:45 88° ENE 06:46:16 10° NNW visible
